Location: Aalen
(48.8330°N, 10.1000°E)
Time: 08:44:21
(UTC+01:00)

COSMOS 2251 DEB - Visible Passes

Search period start: 29 January 2022 00:00
Search period end: 08 February 2022 00:00
Orbit: 660 x 823 km, 74.0° (Epoch: 28 January)

Date Brightness Start Highest point End Pass type
(mag) Time Alt. Az. Time Alt. Az. Time Alt. Az.
29 Jan ? 19:25:56 10° NNW 19:29:45 43° NNE 19:29:45 43° NNE visible
29 Jan ? 21:08:05 10° NW 21:09:29 16° WNW 21:09:29 16° WNW visible
30 Jan ? 18:41:12 10° N 18:45:18 27° NE 18:46:17 25° ENE visible
30 Jan ? 20:22:27 10° NW 20:26:02 38° WNW 20:26:02 38° WNW visible
31 Jan ? 17:56:46 10° N 17:59:48 16° NE 18:02:45 10° E visible
31 Jan ? 19:37:12 10° NNW 19:42:01 86° WSW 19:42:49 62° SSE visible
31 Jan ? 21:21:25 10° WNW 21:22:35 11° W 21:22:35 11° W visible
01 Feb ? 18:52:14 10° NNW 18:56:52 49° ENE 18:59:54 20° SE visible
01 Feb ? 20:34:23 10° NW 20:37:59 22° W 20:39:43 18° SW visible
02 Feb ? 18:07:29 10° N 18:11:33 27° NE 18:15:32 10° ESE visible
02 Feb ? 19:48:44 10° NW 19:53:12 43° WSW 19:57:27 11° S visible
03 Feb ? 19:03:29 10° NNW 19:08:15 86° WSW 19:12:54 10° SSE visible
03 Feb ? 20:47:44 10° WNW 20:48:50 11° W 20:49:57 10° WSW visible
04 Feb ? 18:18:30 10° NNW 18:23:07 49° ENE 18:27:37 10° SE visible
04 Feb ? 20:00:39 10° NW 20:04:13 22° W 20:07:45 10° SSW visible
05 Feb ? 19:14:58 10° NW 19:19:26 43° WSW 19:23:49 10° S visible
06 Feb ? 18:29:44 10° NNW 18:34:28 86° WSW 18:39:07 10° SSE visible
06 Feb ? 20:14:02 10° W 20:15:04 11° W 20:16:07 10° WSW visible
07 Feb ? 19:26:53 10° NW 19:30:26 22° W 19:33:58 10° SSW visible
